| time (UTC) | temp F | wind direction | speed knots | gust knots | rain 1hr in | rain 24hr in | rain mn in | humidity % | barometer mb |
| 20260505170004 | 59 | 49 | 0.0 | 2.6 | 0.00 | 0.00 | 0.00 | 67 | 1014.4 |
| 20260505165504 | 58 | 243 | 0.0 | 0.0 | 0.00 | 0.00 | 0.00 | 68 | 1014.4 |
| 20260505165004 | 58 | 243 | 0.0 | 0.0 | 0.00 | 0.00 | 0.00 | 69 | 1014.4 |
| 20260505164504 | 57 | 188 | 0.0 | 0.9 | 0.00 | 0.00 | 0.00 | 69 | 1014.4 |
| 20260505164004 | 57 | 0 | 0.9 | 2.6 | 0.00 | 0.00 | 0.00 | 70 | 1014.4 |
| 20260505163004 | 56 | 315 | 0.0 | 0.9 | 0.00 | 0.00 | 0.00 | 72 | 1014.4 |
| 20260505162504 | 66 | 0 | 1.7 | 1.7 | 0.00 | 0.00 | 0.00 | 65 | 1020.0 |
| 20260505161504 | 66 | 0 | 1.7 | 1.7 | 0.00 | 0.00 | 0.00 | 65 | 1020.0 |
| 20260505161004 | 55 | 311 | 0.0 | 0.0 | 0.00 | 0.00 | 0.00 | 74 | 1014.0 |
| 20260505160504 | 66 | 0 | 1.7 | 1.7 | 0.00 | 0.00 | 0.00 | 65 | 1020.0 |
| 20260505153004 | 53 | 311 | 0.0 | 0.0 | 0.00 | 0.00 | 0.00 | 80 | 1014.0 |
| 20260505152004 | 53 | 311 | 0.0 | 0.0 | 0.00 | 0.00 | 0.00 | 81 | 1014.0 |
| 20260505151504 | 53 | 311 | 0.0 | 0.0 | 0.00 | 0.00 | 0.00 | 81 | 1014.0 |
| 20260505151004 | 53 | 311 | 0.0 | 0.0 | 0.00 | 0.00 | 0.00 | 81 | 1014.0 |
| 20260505140504 | 51 | 311 | 0.0 | 0.0 | 0.00 | 0.00 | 0.00 | 84 | 1013.5 |
| 20260505125004 | 66 | 0 | 1.7 | 1.7 | 0.00 | 0.00 | 0.00 | 65 | 1020.0 |
| 20260505124504 | 66 | 0 | 1.7 | 1.7 | 0.00 | 0.00 | 0.00 | 65 | 1020.0 |
| 20260505124004 | 66 | 0 | 1.7 | 1.7 | 0.00 | 0.00 | 0.00 | 65 | 1020.0 |
| 20260505123504 | 66 | 0 | 1.7 | 1.7 | 0.00 | 0.00 | 0.00 | 65 | 1020.0 |
| 20260505123004 | 51 | 311 | 0.0 | 0.0 | 0.00 | 0.00 | 0.00 | 84 | 1013.5 |
| 20260505122504 | 51 | 311 | 0.0 | 0.0 | 0.00 | 0.00 | 0.00 | 84 | 1013.5 |
| 20260505122004 | 51 | 311 | 0.0 | 0.0 | 0.00 | 0.00 | 0.00 | 84 | 1013.5 |
| 20260505121004 | 51 | 311 | 0.0 | 0.0 | 0.00 | 0.00 | 0.00 | 84 | 1013.5 |
| 20260505120504 | 66 | 0 | 1.7 | 1.7 | 0.00 | 0.00 | 0.00 | 65 | 1020.0 |
| 20260505120004 | 51 | 311 | 0.0 | 0.0 | 0.00 | 0.00 | 0.00 | 84 | 1013.4 |
| 20260505115504 | 51 | 311 | 0.0 | 0.0 | 0.00 | 0.00 | 0.00 | 84 | 1013.4 |
| 20260505115004 | 51 | 311 | 0.0 | 0.0 | 0.00 | 0.00 | 0.00 | 84 | 1013.4 |
| 20260505114504 | 51 | 311 | 0.0 | 0.0 | 0.00 | 0.00 | 0.00 | 84 | 1013.4 |
| 20260505114004 | 51 | 311 | 0.0 | 0.0 | 0.00 | 0.00 | 0.00 | 84 | 1013.4 |
| 20260505113004 | 51 | 311 | 0.0 | 0.0 | 0.00 | 0.00 | 0.00 | 84 | 1013.5 |
| 20260505112503 | 51 | 311 | 0.0 | 0.0 | 0.00 | 0.00 | 0.00 | 84 | 1013.5 |
| 20260505112004 | 51 | 311 | 0.0 | 0.0 | 0.00 | 0.00 | 0.00 | 84 | 1013.5 |
| 20260505111504 | 51 | 311 | 0.0 | 0.0 | 0.00 | 0.00 | 0.00 | 84 | 1013.5 |
| 20260505111004 | 51 | 311 | 0.0 | 0.0 | 0.00 | 0.00 | 0.00 | 84 | 1013.5 |
| 20260505110504 | 51 | 311 | 0.0 | 0.0 | 0.00 | 0.00 | 0.00 | 84 | 1013.5 |
| 20260505102004 | 66 | 0 | 1.7 | 1.7 | 0.00 | 0.00 | 0.00 | 65 | 1020.0 |
| 20260505101504 | 52 | 311 | 0.0 | 0.0 | 0.00 | 0.00 | 0.00 | 83 | 1013.5 |
| 20260505101004 | 52 | 311 | 0.0 | 0.0 | 0.00 | 0.00 | 0.00 | 83 | 1013.5 |
| 20260505100504 | 52 | 311 | 0.0 | 0.0 | 0.00 | 0.00 | 0.00 | 83 | 1013.5 |
| 20260505100004 | 52 | 311 | 0.0 | 0.0 | 0.00 | 0.00 | 0.00 | 83 | 1013.5 |
| 20260505095004 | 52 | 302 | 0.0 | 0.0 | 0.00 | 0.00 | 0.00 | 83 | 1013.5 |
| 20260505094004 | 66 | 0 | 1.7 | 1.7 | 0.00 | 0.00 | 0.00 | 65 | 1020.0 |
| 20260505093504 | 66 | 0 | 1.7 | 1.7 | 0.00 | 0.00 | 0.00 | 65 | 1020.0 |
| 20260505093004 | 66 | 0 | 1.7 | 1.7 | 0.00 | 0.00 | 0.00 | 65 | 1020.0 |
| 20260505092004 | 66 | 0 | 1.7 | 1.7 | 0.00 | 0.00 | 0.00 | 65 | 1020.0 |
| 20260505091504 | 52 | 302 | 0.0 | 0.0 | 0.00 | 0.00 | 0.00 | 83 | 1013.9 |
| 20260505091004 | 66 | 0 | 1.7 | 1.7 | 0.00 | 0.00 | 0.00 | 65 | 1020.0 |
| 20260505090504 | 66 | 0 | 1.7 | 1.7 | 0.00 | 0.00 | 0.00 | 65 | 1020.0 |
| 20260505090004 | 66 | 0 | 1.7 | 1.7 | 0.00 | 0.00 | 0.00 | 65 | 1020.0 |
| 20260505085504 | 66 | 0 | 1.7 | 1.7 | 0.00 | 0.00 | 0.00 | 65 | 1020.0 |
| 20260505085004 | 52 | 302 | 0.0 | 0.0 | 0.00 | 0.00 | 0.00 | 83 | 1014.0 |
| 20260505084004 | 51 | 302 | 0.0 | 0.0 | 0.00 | 0.00 | 0.00 | 83 | 1014.0 |
| 20260505083504 | 51 | 302 | 0.0 | 0.0 | 0.00 | 0.00 | 0.00 | 83 | 1014.0 |
| 20260505083004 | 51 | 302 | 0.0 | 0.0 | 0.00 | 0.00 | 0.00 | 83 | 1014.0 |
| 20260505082504 | 51 | 302 | 0.0 | 0.0 | 0.00 | 0.00 | 0.00 | 83 | 1014.0 |
| 20260505082004 | 51 | 302 | 0.0 | 0.0 | 0.00 | 0.00 | 0.00 | 83 | 1014.0 |
| 20260505081504 | 66 | 0 | 1.7 | 1.7 | 0.00 | 0.00 | 0.00 | 65 | 1020.0 |
| 20260505081004 | 52 | 302 | 0.0 | 0.0 | 0.00 | 0.00 | 0.00 | 83 | 1014.0 |
| 20260505080504 | 66 | 0 | 1.7 | 1.7 | 0.00 | 0.00 | 0.00 | 65 | 1020.0 |
| 20260505080004 | 66 | 0 | 1.7 | 1.7 | 0.00 | 0.00 | 0.00 | 65 | 1020.0 |
| 20260505075504 | 52 | 302 | 0.0 | 0.0 | 0.00 | 0.00 | 0.00 | 82 | 1014.0 |
| 20260505074504 | 52 | 302 | 0.0 | 0.0 | 0.00 | 0.00 | 0.00 | 82 | 1014.0 |
| 20260505073504 | 66 | 0 | 1.7 | 1.7 | 0.00 | 0.00 | 0.00 | 65 | 1020.0 |
| 20260505073004 | 52 | 302 | 0.0 | 0.0 | 0.00 | 0.00 | 0.00 | 82 | 1013.9 |
| 20260505071504 | 52 | 302 | 0.0 | 0.0 | 0.00 | 0.00 | 0.00 | 81 | 1013.9 |
| 20260505071004 | 66 | 0 | 1.7 | 1.7 | 0.00 | 0.00 | 0.00 | 65 | 1020.0 |
| 20260505070004 | 52 | 302 | 0.0 | 0.0 | 0.00 | 0.00 | 0.00 | 81 | 1013.8 |
| 20260505065504 | 66 | 0 | 1.7 | 1.7 | 0.00 | 0.00 | 0.00 | 65 | 1020.0 |
| 20260505065004 | 66 | 0 | 1.7 | 1.7 | 0.00 | 0.00 | 0.00 | 65 | 1020.0 |
| 20260505064504 | 66 | 0 | 1.7 | 1.7 | 0.00 | 0.00 | 0.00 | 65 | 1020.0 |
| 20260505063504 | 52 | 302 | 0.0 | 0.0 | 0.00 | 0.00 | 0.00 | 80 | 1013.6 |
| 20260505063004 | 52 | 302 | 0.0 | 0.0 | 0.00 | 0.00 | 0.00 | 80 | 1013.9 |
| 20260505062504 | 52 | 302 | 0.0 | 0.0 | 0.00 | 0.00 | 0.00 | 80 | 1013.9 |
| 20260505062004 | 52 | 302 | 0.0 | 0.0 | 0.00 | 0.00 | 0.00 | 79 | 1013.9 |
| 20260505061504 | 66 | 0 | 1.7 | 1.7 | 0.00 | 0.00 | 0.00 | 65 | 1020.0 |
| 20260505061004 | 66 | 0 | 1.7 | 1.7 | 0.00 | 0.00 | 0.00 | 65 | 1020.0 |
| 20260505060504 | 66 | 0 | 1.7 | 1.7 | 0.00 | 0.00 | 0.00 | 65 | 1020.0 |
| 20260505060004 | 66 | 0 | 1.7 | 1.7 | 0.00 | 0.00 | 0.00 | 65 | 1020.0 |
| 20260505055504 | 66 | 0 | 1.7 | 1.7 | 0.00 | 0.00 | 0.00 | 65 | 1020.0 |
| 20260505055004 | 53 | 302 | 0.0 | 0.0 | 0.00 | 0.00 | 0.00 | 76 | 1013.9 |
| 20260505054504 | 66 | 0 | 1.7 | 1.7 | 0.00 | 0.00 | 0.00 | 65 | 1020.0 |
| 20260505054004 | 66 | 0 | 1.7 | 1.7 | 0.00 | 0.00 | 0.00 | 65 | 1020.0 |
| 20260505053504 | 66 | 0 | 1.7 | 1.7 | 0.00 | 0.00 | 0.00 | 65 | 1020.0 |
| 20260505053004 | 66 | 0 | 1.7 | 1.7 | 0.00 | 0.00 | 0.00 | 65 | 1020.0 |
| 20260505052504 | 66 | 0 | 1.7 | 1.7 | 0.00 | 0.00 | 0.00 | 65 | 1020.0 |
| 20260505051504 | 66 | 0 | 1.7 | 1.7 | 0.00 | 0.00 | 0.00 | 65 | 1020.0 |
| 20260505050504 | 53 | 302 | 0.0 | 0.0 | 0.00 | 0.00 | 0.00 | 75 | 1013.9 |
| 20260505041504 | 55 | 302 | 0.0 | 0.0 | 0.00 | 0.00 | 0.00 | 69 | 1013.1 |
| 20260505041004 | 56 | 302 | 0.0 | 0.0 | 0.00 | 0.00 | 0.00 | 68 | 1013.1 |
| 20260505040504 | 56 | 302 | 0.0 | 0.0 | 0.00 | 0.00 | 0.00 | 68 | 1013.1 |
| 20260505040005 | 56 | 302 | 0.0 | 0.0 | 0.00 | 0.00 | 0.00 | 67 | 1013.1 |
| 20260505035504 | 56 | 302 | 0.0 | 0.0 | 0.00 | 0.00 | 0.00 | 67 | 1013.1 |
| 20260505035004 | 66 | 0 | 1.7 | 1.7 | 0.00 | 0.00 | 0.00 | 65 | 1020.0 |
| 20260505034004 | 66 | 0 | 1.7 | 1.7 | 0.00 | 0.00 | 0.00 | 65 | 1020.0 |
| 20260505033504 | 66 | 0 | 1.7 | 1.7 | 0.00 | 0.00 | 0.00 | 65 | 1020.0 |
| 20260505033004 | 66 | 0 | 1.7 | 1.7 | 0.00 | 0.00 | 0.00 | 65 | 1020.0 |
| 20260505032005 | 58 | 302 | 0.0 | 0.0 | 0.00 | 0.00 | 0.00 | 62 | 1013.1 |
| 20260505031504 | 58 | 302 | 0.0 | 0.0 | 0.00 | 0.00 | 0.00 | 61 | 1013.1 |
| 20260505031004 | 59 | 302 | 0.0 | 0.0 | 0.00 | 0.00 | 0.00 | 60 | 1013.1 |
| 20260505030504 | 59 | 302 | 0.0 | 0.0 | 0.00 | 0.00 | 0.00 | 59 | 1013.1 |
| 20260505025504 | 59 | 302 | 0.0 | 0.0 | 0.00 | 0.00 | 0.00 | 58 | 1013.1 |
| 20260505025004 | 60 | 302 | 0.0 | 0.0 | 0.00 | 0.00 | 0.00 | 57 | 1013.1 |
| 20260505024504 | 60 | 302 | 0.0 | 0.0 | 0.00 | 0.00 | 0.00 | 57 | 1013.0 |
| 20260505023504 | 60 | 302 | 0.0 | 0.0 | 0.00 | 0.00 | 0.00 | 55 | 1013.0 |
| 20260505022504 | 61 | 318 | 0.0 | 0.0 | 0.00 | 0.00 | 0.00 | 53 | 1013.0 |
| 20260505022003 | 66 | 0 | 1.7 | 1.7 | 0.00 | 0.00 | 0.00 | 65 | 1020.0 |
| 20260505021503 | 66 | 0 | 1.7 | 1.7 | 0.00 | 0.00 | 0.00 | 65 | 1020.0 |
| 20260505020504 | 62 | 251 | 0.9 | 2.6 | 0.00 | 0.00 | 0.00 | 50 | 1013.1 |
| 20260505020005 | 62 | 256 | 0.0 | 4.3 | 0.00 | 0.00 | 0.00 | 51 | 1013.1 |
| 20260505015004 | 66 | 0 | 1.7 | 1.7 | 0.00 | 0.00 | 0.00 | 65 | 1020.0 |
| 20260505014504 | 66 | 0 | 1.7 | 1.7 | 0.00 | 0.00 | 0.00 | 65 | 1020.0 |
| 20260505014004 | 66 | 0 | 1.7 | 1.7 | 0.00 | 0.00 | 0.00 | 65 | 1020.0 |
| 20260505013504 | 63 | 308 | 0.9 | 5.2 | 0.00 | 0.00 | 0.00 | 45 | 1013.1 |
| 20260505013004 | 64 | 254 | 0.0 | 1.7 | 0.00 | 0.00 | 0.00 | 46 | 1013.1 |
| 20260505012504 | 64 | 236 | 0.0 | 4.3 | 0.00 | 0.00 | 0.00 | 45 | 1013.1 |
| 20260505012003 | 64 | 238 | 0.9 | 5.2 | 0.00 | 0.00 | 0.00 | 45 | 1013.5 |
| 20260505011504 | 64 | 254 | 0.9 | 2.6 | 0.00 | 0.00 | 0.00 | 46 | 1013.5 |
| 20260505010004 | 64 | 310 | 0.0 | 2.6 | 0.00 | 0.00 | 0.00 | 47 | 1013.5 |
| 20260505004004 | 66 | 162 | 1.7 | 5.2 | 0.00 | 0.00 | 0.00 | 44 | 1013.5 |
| 20260505003503 | 66 | 171 | 0.0 | 4.3 | 0.00 | 0.00 | 0.00 | 43 | 1013.5 |
| 20260505003004 | 67 | 201 | 0.9 | 7.0 | 0.00 | 0.00 | 0.00 | 43 | 1013.5 |
| 20260505002504 | 67 | 217 | 0.0 | 2.6 | 0.00 | 0.00 | 0.00 | 42 | 1013.5 |
| 20260505002004 | 67 | 202 | 0.0 | 2.6 | 0.00 | 0.00 | 0.00 | 43 | 1013.5 |
| 20260505001504 | 67 | 297 | 0.9 | 4.3 | 0.00 | 0.00 | 0.00 | 42 | 1013.3 |
| 20260505000504 | 68 | 312 | 0.9 | 2.6 | 0.00 | 0.00 | 0.00 | 42 | 1013.3 |
| 20260505000004 | 66 | 0 | 1.7 | 1.7 | 0.00 | 0.00 | 0.00 | 65 | 1020.0 |
| 20260504235504 | 66 | 0 | 1.7 | 1.7 | 0.00 | 0.00 | 0.00 | 65 | 1020.0 |
| 20260504235004 | 68 | 240 | 0.9 | 2.6 | 0.00 | 0.00 | 0.00 | 41 | 1013.3 |
| 20260504234504 | 66 | 0 | 1.7 | 1.7 | 0.00 | 0.00 | 0.00 | 65 | 1020.0 |
| 20260504234004 | 66 | 0 | 1.7 | 1.7 | 0.00 | 0.00 | 0.00 | 65 | 1020.0 |
| 20260504233504 | 66 | 0 | 1.7 | 1.7 | 0.00 | 0.00 | 0.00 | 65 | 1020.0 |
| 20260504233003 | 66 | 0 | 1.7 | 1.7 | 0.00 | 0.00 | 0.00 | 65 | 1020.0 |
| 20260504232504 | 66 | 0 | 1.7 | 1.7 | 0.00 | 0.00 | 0.00 | 65 | 1020.0 |
| 20260504232004 | 66 | 0 | 1.7 | 1.7 | 0.00 | 0.00 | 0.00 | 65 | 1020.0 |
| 20260504231505 | 68 | 331 | 0.9 | 5.2 | 0.00 | 0.00 | 0.00 | 39 | 1013.5 |
| 20260504230504 | 68 | 223 | 1.7 | 5.2 | 0.00 | 0.00 | 0.00 | 42 | 1013.5 |
| 20260504225503 | 66 | 0 | 1.7 | 1.7 | 0.00 | 0.00 | 0.00 | 65 | 1020.0 |
| 20260504225004 | 66 | 0 | 1.7 | 1.7 | 0.00 | 0.00 | 0.00 | 65 | 1020.0 |
| 20260504224504 | 66 | 0 | 1.7 | 1.7 | 0.00 | 0.00 | 0.00 | 65 | 1020.0 |
| 20260504224004 | 66 | 0 | 1.7 | 1.7 | 0.00 | 0.00 | 0.00 | 65 | 1020.0 |
| 20260504223504 | 68 | 226 | 2.6 | 5.2 | 0.00 | 0.00 | 0.00 | 44 | 1013.9 |
| 20260504223004 | 68 | 200 | 1.7 | 7.0 | 0.00 | 0.00 | 0.00 | 43 | 1013.9 |
| 20260504222504 | 68 | 168 | 2.6 | 8.7 | 0.00 | 0.00 | 0.00 | 44 | 1013.9 |
| 20260504222004 | 66 | 0 | 1.7 | 1.7 | 0.00 | 0.00 | 0.00 | 65 | 1020.0 |
| 20260504221504 | 69 | 206 | 1.7 | 6.1 | 0.00 | 0.01 | 0.00 | 41 | 1013.9 |
| 20260504221003 | 68 | 166 | 0.9 | 4.3 | 0.00 | 0.01 | 0.00 | 43 | 1013.9 |
| 20260504220504 | 66 | 0 | 1.7 | 1.7 | 0.00 | 0.00 | 0.00 | 65 | 1020.0 |
| 20260504220004 | 66 | 0 | 1.7 | 1.7 | 0.00 | 0.00 | 0.00 | 65 | 1020.0 |
| 20260504215504 | 68 | 274 | 1.7 | 8.7 | 0.00 | 0.01 | 0.00 | 42 | 1014.1 |
| 20260504214504 | 66 | 0 | 1.7 | 1.7 | 0.00 | 0.00 | 0.00 | 65 | 1020.0 |
| 20260504214004 | 66 | 0 | 1.7 | 1.7 | 0.00 | 0.00 | 0.00 | 65 | 1020.0 |
| 20260504213503 | 69 | 238 | 1.7 | 5.2 | 0.00 | 0.01 | 0.00 | 46 | 1014.1 |
| 20260504213004 | 66 | 0 | 1.7 | 1.7 | 0.00 | 0.00 | 0.00 | 65 | 1020.0 |
| 20260504212003 | 66 | 0 | 1.7 | 1.7 | 0.00 | 0.00 | 0.00 | 65 | 1020.0 |
| 20260504211504 | 66 | 0 | 1.7 | 1.7 | 0.00 | 0.00 | 0.00 | 65 | 1020.0 |
| 20260504211004 | 67 | 231 | 1.7 | 5.2 | 0.00 | 0.01 | 0.00 | 52 | 1014.4 |
| 20260504210504 | 67 | 264 | 2.6 | 6.1 | 0.00 | 0.01 | 0.00 | 52 | 1014.4 |
| 20260504210004 | 67 | 238 | 1.7 | 6.1 | 0.00 | 0.01 | 0.00 | 53 | 1014.3 |
| 20260504205503 | 66 | 0 | 1.7 | 1.7 | 0.00 | 0.00 | 0.00 | 65 | 1020.0 |
| 20260504205004 | 66 | 212 | 2.6 | 7.0 | 0.00 | 0.01 | 0.00 | 56 | 1014.3 |
| 20260504203503 | 66 | 0 | 1.7 | 1.7 | 0.00 | 0.00 | 0.00 | 65 | 1020.0 |
| 20260504203004 | 66 | 0 | 1.7 | 1.7 | 0.00 | 0.00 | 0.00 | 65 | 1020.0 |
| 20260504202504 | 66 | 0 | 1.7 | 1.7 | 0.00 | 0.00 | 0.00 | 65 | 1020.0 |
| 20260504202004 | 66 | 0 | 1.7 | 1.7 | 0.00 | 0.00 | 0.00 | 65 | 1020.0 |
| 20260504201504 | 65 | 168 | 4.3 | 7.0 | 0.00 | 0.01 | 0.00 | 59 | 1014.7 |
| 20260504201004 | 66 | 0 | 1.7 | 1.7 | 0.00 | 0.00 | 0.00 | 65 | 1020.0 |
| 20260504200004 | 66 | 0 | 1.7 | 1.7 | 0.00 | 0.00 | 0.00 | 65 | 1020.0 |
| 20260504195504 | 65 | 168 | 2.6 | 7.0 | 0.00 | 0.01 | 0.00 | 57 | 1014.7 |
| 20260504194504 | 66 | 0 | 1.7 | 1.7 | 0.00 | 0.00 | 0.00 | 65 | 1020.0 |
| 20260504194004 | 66 | 0 | 1.7 | 1.7 | 0.00 | 0.00 | 0.00 | 65 | 1020.0 |
| 20260504193504 | 63 | 188 | 0.9 | 5.2 | 0.00 | 0.01 | 0.00 | 62 | 1014.7 |
| 20260504193004 | 62 | 234 | 1.7 | 5.2 | 0.00 | 0.01 | 0.00 | 61 | 1014.7 |
| 20260504192504 | 66 | 0 | 1.7 | 1.7 | 0.00 | 0.00 | 0.00 | 65 | 1020.0 |
| 20260504192004 | 66 | 0 | 1.7 | 1.7 | 0.00 | 0.00 | 0.00 | 65 | 1020.0 |
| 20260504191503 | 66 | 0 | 1.7 | 1.7 | 0.00 | 0.00 | 0.00 | 65 | 1020.0 |
| 20260504191004 | 66 | 0 | 1.7 | 1.7 | 0.00 | 0.00 | 0.00 | 65 | 1020.0 |
| 20260504190504 | 66 | 0 | 1.7 | 1.7 | 0.00 | 0.00 | 0.00 | 65 | 1020.0 |
| 20260504185504 | 62 | 311 | 0.9 | 4.3 | 0.00 | 0.01 | 0.00 | 63 | 1014.7 |
| 20260504185004 | 62 | 165 | 0.9 | 5.2 | 0.00 | 0.01 | 0.00 | 64 | 1014.7 |
| 20260504184004 | 62 | 173 | 2.6 | 6.1 | 0.00 | 0.01 | 0.00 | 64 | 1014.7 |
| 20260504183503 | 66 | 0 | 1.7 | 1.7 | 0.00 | 0.00 | 0.00 | 65 | 1020.0 |
| 20260504182504 | 66 | 0 | 1.7 | 1.7 | 0.00 | 0.00 | 0.00 | 65 | 1020.0 |
| 20260504182004 | 66 | 0 | 1.7 | 1.7 | 0.00 | 0.00 | 0.00 | 65 | 1020.0 |
| 20260504181504 | 62 | 166 | 3.5 | 7.0 | 0.00 | 0.01 | 0.00 | 63 | 1014.6 |
| 20260504181008 | 63 | 163 | 2.6 | 7.0 | 0.00 | 0.01 | 0.00 | 62 | 1014.6 |
| 20260504180504 | 62 | 145 | 0.9 | 6.1 | 0.00 | 0.01 | 0.00 | 65 | 1014.6 |
| 20260504180004 | 66 | 0 | 1.7 | 1.7 | 0.00 | 0.00 | 0.00 | 65 | 1020.0 |
| 20260504175511 | 66 | 0 | 1.7 | 1.7 | 0.00 | 0.00 | 0.00 | 65 | 1020.0 |
| 20260504174504 | 62 | 146 | 2.6 | 8.7 | 0.00 | 0.01 | 0.00 | 64 | 1014.1 |
| 20260504172504 | 62 | 161 | 2.6 | 7.0 | 0.00 | 0.01 | 0.00 | 64 | 1014.1 |